Location: Maignaut
(43.8886°N, 0.4051°E)
Time: 14:24:51
(UTC+00:00)

Daily predictions for brighter satellites

Satellite Brightness Start Highest point End
(mag) Time Altitude Azimuth Time Altitude Azimuth Time Altitude Azimuth
NOAA 11 4.3 18:02:55 10° SSE 18:08:11 54° ENE 18:13:28 10° N
STARLINK-1063 3.9 18:05:28 10° SW 18:09:29 54° SE 18:13:32 10° ENE
OE (NEXTSAT) 4.4 18:07:34 10° WNW 18:11:03 69° N 18:14:33 10° E
STARLINK-1064 3.8 18:10:24 10° SW 18:14:27 59° SE 18:18:32 10° ENE
ADEOS Rocket 3.8 18:09:46 10° NNE 18:17:17 48° E 18:24:29 10° S
STARLINK-1041 3.7 18:15:20 10° SW 18:19:25 64° SE 18:23:32 10° ENE
Meteor 1-20 Rocket 4.5 18:14:26 10° SSE 18:19:36 45° E 18:24:53 10° NNE
Cosmos 2227 Rocket 4.1 18:18:19 10° NNE 18:20:27 12° NE 18:22:36 10° ENE
Cosmos 1656 Rocket 3.6 18:17:26 10° SSW 18:22:56 79° ESE 18:28:34 10° NNE
STARLINK-1038 3.6 18:20:16 10° SW 18:24:22 70° SE 18:28:30 10° ENE
STARLINK-1046 3.6 18:25:14 10° SW 18:29:22 76° SE 18:33:30 10° ENE
Cosmos 2285 Rocket 4.2 18:23:23 10° NNW 18:29:48 83° WSW 18:36:13 10° SSE
H-2A R/B 3.2 18:26:08 10° ESE 18:30:27 25° ENE 18:34:49 10° N
STARLINK-1039 3.6 18:30:14 10° SW 18:34:22 83° SE 18:38:22 11° ENE
STARLINK-1045 3.6 18:35:12 10° SW 18:39:20 89° SE 18:43:08 12° NE
Meteor 1-18 Rocket 4.5 18:33:37 10° N 18:39:21 51° ENE 18:44:59 10° SSE
COSMOS 2487 2.3 18:36:39 10° NNW 18:40:07 83° ENE 18:43:33 10° SSE
Cosmos 1470 Rocket 4.2 18:36:01 10° SSW 18:40:19 61° W 18:44:43 10° N
STARLINK-43 3.7 18:40:24 10° NW 18:44:01 49° NNE 18:46:22 19° E
STARLINK-1050 3.6 18:40:13 10° WSW 18:44:21 83° NNW 18:47:59 13° NE
HJ-1C 3.6 18:42:07 10° SSE 18:45:16 44° ENE 18:48:26 10° N
Lacrosse 5 rocket 3.3 18:42:15 10° NNW 18:45:36 20° NNE 18:48:11 13° NE
Cosmos 468 Rocket 4.0 18:40:48 10° S 18:46:01 63° ESE 18:51:17 10° NNE
Timation 2 Rocket 4.3 18:39:30 10° NNW 18:46:19 59° ENE 18:53:04 10° SE
Okean 1 3.5 18:43:36 10° N 18:47:30 48° ENE 18:51:20 10° SSE
Okean 1-7 3.0 18:44:18 10° N 18:48:35 58° E 18:52:52 10° SSE
STARLINK-1055 3.7 18:45:11 10° WSW 18:49:19 77° NNW 18:52:45 15° NE
Cosmos 2219 4.3 18:44:48 10° N 18:49:32 26° NE 18:52:15 18° E
Cosmos 192 4.2 18:45:39 10° S 18:50:31 69° ESE 18:55:24 10° NNE
COSMO-SKYMED 1 4.2 18:47:17 10° N 18:51:18 37° WNW 18:55:17 10° SW
Lacrosse 5 1.9 18:46:23 10° SSW 18:51:22 59° SE 18:55:38 14° NE
Cosmos 405 2.8 18:49:49 10° N 18:53:22 72° E 18:56:54 10° SSE
STARLINK-1022 3.8 18:50:10 10° WSW 18:54:18 71° NNW 18:57:31 16° NE
Meteor 1-14 Rocket 4.2 18:51:16 10° S 18:56:41 61° E 19:02:11 10° NNE
Meteor 2-4 Rocket 4.3 18:52:16 10° N 18:57:46 38° ENE 19:03:15 10° SE
Gbstr 26 Del rocket 3.2 18:54:33 10° WSW 18:58:34 67° NNW 19:02:07 17° NE
STARLINK-1042 3.9 18:55:11 10° WSW 18:59:18 66° NNW 19:02:20 18° NE
Cosmos 2369 Rocket 4.1 18:55:29 10° WSW 19:00:21 29° NW 19:05:17 10° N
Cosmos 1602 3.6 18:59:33 10° S 19:03:24 75° E 19:07:16 10° NNE
STARLINK-1056 4.0 19:00:11 10° WSW 19:04:17 62° NNW 19:07:06 19° NE
Cosmos 44 Rocket 3.1 19:00:13 10° NNW 19:04:58 77° NE 19:08:48 16° SE
Cosmos 1898 Rocket 3.4 19:00:37 10° NNW 19:05:49 87° ENE 19:11:01 10° SSE
Cosmos 1703 Rocket 3.7 19:01:26 10° N 19:05:54 78° W 19:10:22 10° S
Cosmos 841 Rocket 3.8 19:01:13 10° S 19:06:00 42° ESE 19:10:52 10° NE
Cosmos 1763 Rocket 3.4 19:01:09 10° SSW 19:06:21 77° ESE 19:11:39 10° NNE
SJ 16-02 1.2 19:02:34 10° NNW 19:07:01 86° ENE 19:11:23 10° SSE
STARLINK-1054 4.1 19:05:11 10° WSW 19:09:15 58° NNW 19:11:52 21° NE
ARGOS 3.5 19:04:36 12° SE 19:09:19 44° ENE 19:14:27 10° N
Cosmos 1939 Rocket 4.3 19:05:35 10° S 19:09:30 41° W 19:13:27 10° NNW
Resurs 01 Rocket 3.7 19:11:23 13° NE 19:11:23 13° NE 19:12:22 10° NNE
Meteor 1-19 Rocket 4.1 19:04:23 10° N 19:10:10 72° ENE 19:15:45 10° SSE
STARLINK-26 4.4 19:08:38 10° NW 19:11:40 27° NNE 19:12:15 26° NE
Cosmos 1869 Rocket 3.4 19:08:40 10° S 19:13:03 80° E 19:17:27 10° N
Cosmos 2208 Rocket 4.1 19:07:49 10° S 19:13:04 54° ESE 19:18:18 10° NNE
GPS 2-04 Rocket1 4.4 19:10:02 10° WSW 19:13:30 25° S 19:15:11 19° SSE
ARGOS Delta rocket 4.2 19:13:10 32° E 19:14:02 35° ENE 19:18:07 10° N
Meteor 1-11 Rocket 4.4 19:09:25 10° SSE 19:14:05 28° E 19:18:45 10° NNE
STARLINK-1062 4.2 19:10:11 10° WSW 19:14:15 54° NNW 19:16:39 23° NE
SPOT 3 Rocket 4.2 19:13:09 28° E 19:14:45 34° ENE 19:19:26 10° N
CENTAUR R/B 4.0 19:12:16 10° NNW 19:19:04 31° NNE 19:22:39 23° ENE
STARLINK-1053 4.3 19:15:13 10° WSW 19:19:15 51° NNW 19:21:27 24° NE
CZ-4 R/B 4.2 19:17:52 10° SW 19:21:04 21° W 19:24:16 10° NW
STARLINK-80 3.8 19:18:59 10° NW 19:22:42 47° NNE 19:23:11 44° NE
STARLINK-1061 4.4 19:20:13 10° WSW 19:24:14 48° NNW 19:26:12 26° NE
CZ-2C R/B 3.3 19:18:39 10° SSE 19:24:19 59° ENE 19:29:52 10° N
Cosmos 858 Rocket 4.5 19:21:11 10° NNW 19:26:26 84° WSW 19:31:33 10° SSE
Cosmos 1570 Rocket 3.9 19:22:08 10° SSW 19:27:22 85° ESE 19:32:41 10° NNE
FREGAT/IRIS 4.2 19:29:02 24° N 19:29:02 24° N 19:30:16 10° N
SJ-6B 2.8 19:29:19 53° NE 19:29:19 53° NE 19:32:47 10° N
STARLINK-1067 4.5 19:25:15 10° W 19:29:14 45° NNW 19:31:00 28° NNE
Ariane Rocket 3.2 19:26:51 10° S 19:31:56 73° WSW 19:37:04 10° NNW
Cosmos 540 Rocket 3.3 19:27:28 10° S 19:32:30 63° ESE 19:37:36 10° NNE
Okean 3 3.4 19:29:01 10° N 19:33:12 60° E 19:33:29 59° E
ATLAS 3B R/B 4.0 19:28:41 10° NNW 19:33:47 22° NNE 19:35:31 20° NE
BREEZE-M DEB (TANK) 4.2 19:32:01 10° WNW 19:35:19 56° SSW 19:40:13 22° SE
SL-08 RB Rocket 3.6 19:42:33 60° ENE 19:42:33 60° ENE 19:46:52 10° N
Meteor 1-13 Rocket 4.2 19:37:03 10° N 19:42:51 61° ENE 19:44:37 42° SE
APEX 4.0 19:38:23 10° SSW 19:43:19 88° ESE 19:49:33 10° NNE
USA 186 4.4 19:47:13 10° NNW 19:47:13 10° NNW 19:47:16 10° NNW
Cosmos 2297 Rocket 2.4 19:41:07 10° NNW 19:46:36 47° ENE 19:46:50 47° ENE
CZ-2C R/B 3.6 19:43:52 10° NNE 19:48:32 69° ESE 19:53:15 10° S
Nadezhda 4 Rocket 4.3 19:45:10 10° NNW 19:51:25 67° W 19:57:40 10° S
Cosmos 1515 4.2 19:47:55 10° NNW 19:51:38 56° W 19:52:28 44° SW
Genesis I 3.6 19:48:56 10° NW 19:52:02 55° NNW 19:52:02 55° NNW
Cosmos 1937 Rocket 4.4 19:49:45 10° NNW 19:54:46 48° WSW 19:59:19 12° S
ATLAS 2AS CENTAUR R/B 3.8 19:49:01 10° S 19:53:45 31° SE 19:53:45 31° SE
Cosmos 2026 Rocket 3.8 19:51:17 10° N 19:57:26 65° E 19:58:21 57° ESE
Meteor 1-5 Rocket 4.0 19:52:21 10° S 19:57:49 87° E 20:03:32 10° N
Cosmos 2221 Rocket 4.2 20:00:12 10° NNW 20:04:36 54° W 20:06:07 36° SSW
Cosmos 2227 Rocket 2.3 20:00:12 10° NNW 20:05:17 56° NE 20:05:17 56° NE
USA 238 DEB 3.7 20:00:41 10° NW 20:07:54 74° NE 20:09:21 59° ESE
USA 238 3.7 20:00:47 10° NW 20:07:59 73° NE 20:09:24 59° ESE
H-2A R/B 3.0 20:04:19 10° S 20:09:32 49° W 20:14:51 10° NNW
Cosmos 372 Rocket 4.1 20:14:00 10° NNW 20:19:10 70° WSW 20:19:10 70° WSW
Lacrosse 5 rocket 3.0 20:21:06 10° NW 20:23:51 33° NNW 20:23:51 33° NNW
MetOp-A 4.3 20:28:09 68° W 20:28:09 68° W 20:33:15 10° NNW
Cosmos 1428 Rocket 4.5 20:26:56 10° N 20:33:03 76° W 20:33:08 76° WSW
Cosmos 2219 3.6 20:28:26 10° NNW 20:34:04 57° WSW 20:34:13 57° WSW
Lacrosse 5 3.2 20:29:57 10° W 20:34:36 35° NNW 20:34:52 34° NNW
USA 234 4.1 20:42:41 37° NNE 20:42:41 37° NNE 20:48:30 10° NW
H-2A R/B 4.4 20:33:10 10° WSW 20:43:50 22° SSW 20:44:20 22° SSW
Cosmos 2263 Rocket 4.4 20:40:13 10° N 20:41:27 14° NNE 20:41:27 14° NNE
Resurs 01 Rocket 4.0 20:48:56 19° NNW 20:48:56 19° NNW 20:50:14 10° NNW
NOSS 3-2 (A) 4.2 20:50:27 10° NW 20:58:01 67° WSW 20:58:23 66° SW
NOSS 3-2 (C) 4.0 20:54:22 10° NW 21:01:19 77° NW 21:01:19 77° NW
CENTAUR R/B 3.2 21:02:43 10° NW 21:09:51 73° NNW 21:09:51 73° NNW
ATLAS 3B R/B 3.8 21:18:53 10° NNW 21:22:47 37° NNW 21:22:47 37° NNW
Cosmos 2297 Rocket 4.2 21:25:41 10° NW 21:28:41 23° WNW 21:28:41 23° WNW
